Location: Demmingen
(48.6757°N, 10.4375°E)
Time: 09:00:38
(UTC+00:00)

YAOGAN 6 - Pass Details

Date: 23 May 2024
Orbit: 410 x 434 km, 97.2° (Epoch: 15 June)

Event Time Altitude Azimuth Distance (km) Brightness Sun altitude
Rises 02:37:22 0° 20° (NNE) 2,438 7.4 -7.3°
Reaches altitude 10° 02:39:31 10° 29° (NNE) 1,559 6.6 -7.1°
Maximum altitude 02:42:37 35° 97° (E) 730 3.9 -6.7°
Drops below altitude 10° 02:45:40 10° 165° (SSE) 1,534 4.8 -6.3°
Sets 02:47:46 0° 175° (S) 2,390 5.7 -6.0°
